KUIPER-00220

Last updated on Sun Mar 15 2026 00:02:06 GMT+0000 (Coordinated Universal Time)

1 67781U 26030T 26073.59597741 .00051653 00000+0 14952-2 0 9997 2 67781 51.8818 195.6990 0009388 72.0577 288.1432 15.35045500 5840
UTC large
Height (km)
Speed (km/s)
/
Latitude / Longitude
Inclination (degrees)
Orbital Period (minutes)
Azimuth
Elevation
Range (km)
Doppler Factor

Next 0 passes for location: London (51.5072 / 0.1276)

Sorry there are no passes over London.